Find Starlink 31575

NORAD ID: 59471 Int'l Des: 2024-068 Owner: SPXS Country: US Constellation: starlink operational
LEOCIRCULAR

Live Position

Loading 3D Globe...

About Starlink 31575

Description loading...

Upcoming Passes

Passes for default location (London). Set your location on the main map for personalized predictions.

Altitude History

Loading altitude history...

Two-Line Element Set

1 59471U 24068S 26124.27018683 .00000132 00000-0 14329-4 0 9995
2 59471 43.0038 77.1148 0001461 268.1719 91.8965 15.27580070117068
Epoch: May 4, 2026 • Age: 18 hours

Current Status

Altitude 492.5 km
Velocity 7.62 km/s
Sub-Earth Point -35.64°S, 67.98°E
Launch Date Apr 10, 2024
Age 2 years
Type internet

Technical Details

Classification Payload
Mass 730.00 kg
Dry Mass 700.00 kg
Total Mass 730.00 kg
Length 0.30 m
Diameter 4.10 m
Span 29.00 m
Shape Box + pan
Manufacturer SPXS
Bus Type Starlink V2M
Phase Status In Orbit
Owner/State SPXS/US

Most Searched